Voltar ao catálogo

STARLINK-3329

AtivoComunicaçõesVLEO
NORAD 50827·PAYLOAD·🇺🇸 United States

Lançado Jan 6, 2022 de Cape Canaveral Space Force Station

Loading…

Próximas Passagens (próximas 24 horas)

TLE

AtualizadoSource: CelesTrak SupGP

Época: Sep 15, 2026, 02:17 UTC

1 50827C 22001AA  26258.09562500 -.00011898  00000+0 -35167-3 0  2588
2 50827  53.1607  26.6366 0001188  86.9647 226.7632 15.34383391    12

Acompanhe STARLINK-3329 em tempo real com AllMySat

Download on the App Store